SERT 2

Last updated on Sat Aug 15 2026 00:02:07 GMT+0000 (Coordinated Universal Time)

1 04327U 70009A 26226.59737002 .00000008 00000+0 67925-4 0 9993 2 04327 99.2842 161.1769 0005662 116.2362 56.7351 13.58743250801333
UTC large
Height (km)
Speed (km/s)
/
Latitude / Longitude
Inclination (degrees)
Orbital Period (minutes)
Azimuth
Elevation
Range (km)
Doppler Factor

Next 0 passes for location: London (51.5072 / 0.1276)

No passes found over London.
SERT 2